Simultaneous Nadir Overpasses (SNOs) Predictions

Prediction of SNOs between NOAA-19 and TERRA Satellite Orbit:

Table of predicted SNOs for the next 14.0 days since TLE Epoch: 6/22/2024
Index Date (NOAA-19) Time (NOAA-19) Lat,Lon (NOAA-19) SZA (NOAA-19 ) Date (TERRA) Time (TERRA) Lat,Lon (TERRA) SZA (TERRA ) Distance(km) Time Diff (sec)
1 06/23/2024 03:02:16 78.42, 144.27 55.10 06/23/2024 03:02:56 78.43, 144.31 55.12 1.48 40
2 06/23/2024 03:53:09 -78.65, -46.98 124.62 06/23/2024 03:52:13 -78.66, -46.86 124.61 2.86 56
3 06/25/2024 06:52:10 -78.50, -92.68 124.76 06/25/2024 06:52:00 -78.51, -92.60 124.75 2.10 10
4 06/27/2024 09:51:12 -78.30,-138.61 124.92 06/27/2024 09:51:48 -78.29,-138.61 124.92 0.40 36
5 06/27/2024 10:42:04 78.58, 30.41 55.42 06/27/2024 10:41:01 78.58, 30.48 55.42 1.85 63
6 06/29/2024 13:41:06 78.39, -15.46 55.31 06/29/2024 13:40:48 78.40, -15.41 55.31 1.38 18
7 07/01/2024 16:40:08 78.20, -61.34 55.21 07/01/2024 16:40:35 78.19, -61.34 55.21 0.57 27
8 07/01/2024 17:30:58 -78.47, 107.59 124.47 07/01/2024 17:29:51 -78.47, 107.65 124.47 1.38 67
9 07/03/2024 19:39:11 77.95,-107.42 55.10 07/03/2024 19:40:22 77.97,-107.32 55.12 2.99 71
10 07/03/2024 20:29:59 -78.29, 61.79 124.51 07/03/2024 20:29:37 -78.29, 61.84 124.51 1.28 22
11 07/05/2024 23:29:00 -78.10, 15.99 124.53 07/05/2024 23:29:23 -78.10, 15.97 124.53 0.39 23



Historial Predications of SNOs between NOAA-19 and TERRA
